• In Germany
  • List of Countries
  • For 7 days
  • Water Temperature
  • Satellite Maps
  • Weather Map
  • Weather Widgets
  • user-avatar
    Login

    Hourly Weather Mingachevir

    Today, 25 July, Tuesday

    Time Temperature Precipitation Wind Pressure Humidity
    00:00 +26°C° 0 mm 3 mps 749 mmHg 60%
    01:00 +26°C° 0 mm 3 mps 748 mmHg 62%
    02:00 +26°C° 0 mm 2 mps 748 mmHg 63%
    03:00 +25°C° 0 mm 2 mps 748 mmHg 63%
    04:00 +26°C° 0 mm 2 mps 748 mmHg 62%
    05:00 +26°C° 0 mm 2 mps 748 mmHg 60%
    06:00 +26°C° 0 mm 1 mps 748 mmHg 59%
    07:00 +28°C° 0 mm 2 mps 748 mmHg 53%
    08:00 +30°C° 0 mm 2 mps 748 mmHg 48%
    09:00 +31°C° 0 mm 2 mps 747 mmHg 44%
    10:00 +34°C° 0 mm 2 mps 747 mmHg 40%
    11:00 +35°C° 0 mm 2 mps 747 mmHg 37%
    12:00 +36°C° 0 mm 2 mps 746 mmHg 33%
    13:00 +37°C° 0 mm 2 mps 746 mmHg 32%
    14:00 +37°C° 0 mm 2 mps 745 mmHg 30%
    15:00 +37°C° 0 mm 2 mps 745 mmHg 30%
    16:00 +37°C° 0 mm 2 mps 745 mmHg 31%
    17:00 +37°C° 0 mm 2 mps 745 mmHg 31%
    18:00 +37°C° 0 mm 2 mps 745 mmHg 31%
    19:00 +35°C° 0 mm 2 mps 746 mmHg 34%
    20:00 +32°C° 0 mm 2 mps 746 mmHg 37%
    21:00 +31°C° 0 mm 2 mps 747 mmHg 40%
    22:00 +30°C° 0.1 mm 2 mps 747 mmHg 43%
    23:00 +29°C° 0.1 mm 2 mps 747 mmHg 46%

    Tomorrow, 26 July, Wednesday

    Time Temperature Precipitation Wind Pressure Humidity
    00:00 +28°C° 0.1 mm 2 mps 747 mmHg 48%
    01:00 +28°C° 0.2 mm 2 mps 747 mmHg 50%
    02:00 +28°C° 0.2 mm 2 mps 747 mmHg 51%
    03:00 +27°C° 0.2 mm 1 mps 747 mmHg 53%
    04:00 +27°C° 0.1 mm 1 mps 747 mmHg 51%
    05:00 +28°C° 0.1 mm 1 mps 747 mmHg 50%
    06:00 +28°C° 0.1 mm 1 mps 747 mmHg 49%
    07:00 +30°C° 0 mm 2 mps 747 mmHg 44%
    08:00 +31°C° 0 mm 2 mps 747 mmHg 40%
    09:00 +34°C° 0 mm 2 mps 747 mmHg 35%
    10:00 +35°C° 0 mm 2 mps 747 mmHg 33%
    11:00 +37°C° 0 mm 2 mps 746 mmHg 31%
    12:00 +38°C° 0 mm 2 mps 746 mmHg 29%
    13:00 +38°C° 0 mm 2 mps 746 mmHg 28%
    14:00 +39°C° 0 mm 2 mps 746 mmHg 27%
    15:00 +40°C° 0 mm 2 mps 746 mmHg 26%
    16:00 +39°C° 0 mm 3 mps 746 mmHg 27%
    17:00 +39°C° 0 mm 3 mps 746 mmHg 28%
    18:00 +39°C° 0 mm 3 mps 746 mmHg 29%
    19:00 +37°C° 0.1 mm 4 mps 747 mmHg 34%
    20:00 +34°C° 0.1 mm 4 mps 747 mmHg 38%
    21:00 +32°C° 0.1 mm 4 mps 748 mmHg 43%
    22:00 +30°C° 0 mm 4 mps 748 mmHg 45%
    23:00 +30°C° 0 mm 3 mps 748 mmHg 46%

    Day after tomorrow, 27 July, Thursday

    Time Temperature Precipitation Wind Pressure Humidity
    00:00 +29°C° 0 mm 2 mps 749 mmHg 48%
    01:00 +29°C° 0 mm 2 mps 749 mmHg 49%
    02:00 +28°C° 0 mm 2 mps 749 mmHg 49%
    03:00 +28°C° 0 mm 1 mps 749 mmHg 50%
    04:00 +28°C° 0 mm 1 mps 749 mmHg 50%
    05:00 +28°C° 0 mm 1 mps 749 mmHg 49%
    06:00 +29°C° 0 mm 1 mps 749 mmHg 48%
    07:00 +30°C° 0 mm 1 mps 749 mmHg 43%
    08:00 +32°C° 0 mm 1 mps 749 mmHg 39%
    09:00 +34°C° 0 mm 1 mps 749 mmHg 34%
    10:00 +36°C° 0 mm 2 mps 749 mmHg 31%
    11:00 +37°C° 0 mm 2 mps 749 mmHg 29%
    12:00 +39°C° 0 mm 2 mps 748 mmHg 27%
    13:00 +39°C° 0 mm 2 mps 748 mmHg 25%
    14:00 +40°C° 0 mm 3 mps 748 mmHg 24%
    15:00 +42°C° 0 mm 3 mps 747 mmHg 22%
    16:00 +42°C° 0 mm 3 mps 747 mmHg 23%
    17:00 +40°C° 0 mm 3 mps 747 mmHg 23%
    18:00 +40°C° 0 mm 3 mps 747 mmHg 24%
    19:00 +38°C° 0 mm 3 mps 748 mmHg 27%
    20:00 +36°C° 0 mm 3 mps 748 mmHg 29%
    21:00 +34°C° 0 mm 4 mps 749 mmHg 32%
    22:00 +33°C° 0 mm 3 mps 749 mmHg 34%
    23:00 +31°C° 0 mm 3 mps 749 mmHg 35%

    28 July, Friday

    Time Temperature Precipitation Wind Pressure Humidity
    00:00 +30°C° 0 mm 3 mps 749 mmHg 36%
    01:00 +30°C° 0 mm 2 mps 749 mmHg 37%
    02:00 +29°C° 0 mm 2 mps 749 mmHg 38%
    03:00 +29°C° 0 mm 1 mps 749 mmHg 39%
    04:00 +29°C° 0 mm 1 mps 749 mmHg 39%
    05:00 +30°C° 0 mm 1 mps 749 mmHg 39%
    06:00 +30°C° 0 mm 1 mps 749 mmHg 38%
    07:00 +32°C° 0 mm 1 mps 749 mmHg 35%
    08:00 +35°C° 0 mm 2 mps 749 mmHg 31%
    09:00 +37°C° 0 mm 2 mps 748 mmHg 28%
    10:00 +38°C° 0 mm 2 mps 748 mmHg 26%
    11:00 +39°C° 0 mm 2 mps 748 mmHg 24%
    12:00 +41°C° 0 mm 2 mps 747 mmHg 22%
    13:00 +42°C° 0 mm 2 mps 747 mmHg 21%
    14:00 +42°C° 0 mm 2 mps 746 mmHg 20%
    15:00 +43°C° 0 mm 2 mps 746 mmHg 19%
    16:00 +43°C° 0 mm 2 mps 746 mmHg 20%
    17:00 +42°C° 0 mm 2 mps 746 mmHg 20%
    18:00 +42°C° 0 mm 2 mps 746 mmHg 21%
    19:00 +40°C° 0 mm 2 mps 746 mmHg 24%
    20:00 +38°C° 0 mm 3 mps 747 mmHg 27%
    21:00 +35°C° 0 mm 3 mps 747 mmHg 29%
    22:00 +34°C° 0 mm 3 mps 747 mmHg 32%
    23:00 +33°C° 0 mm 3 mps 748 mmHg 35%

    29 July, Saturday

    Time Temperature Precipitation Wind Pressure Humidity
    00:00 +31°C° 0 mm 2 mps 748 mmHg 38%
    01:00 +31°C° 0 mm 2 mps 748 mmHg 39%
    02:00 +30°C° 0 mm 1 mps 748 mmHg 41%
    03:00 +29°C° 0 mm 1 mps 748 mmHg 43%
    04:00 +30°C° 0 mm 1 mps 748 mmHg 41%
    05:00 +30°C° 0 mm 2 mps 748 mmHg 40%
    06:00 +31°C° 0 mm 2 mps 748 mmHg 38%
    07:00 +34°C° 0 mm 3 mps 748 mmHg 33%
    08:00 +37°C° 0 mm 3 mps 748 mmHg 27%
    09:00 +40°C° 0 mm 4 mps 748 mmHg 22%
    10:00 +40°C° 0 mm 3 mps 747 mmHg 20%
    11:00 +43°C° 0 mm 3 mps 747 mmHg 18%
    12:00 +44°C° 0 mm 3 mps 746 mmHg 17%
    13:00 +45°C° 0 mm 3 mps 746 mmHg 16%
    14:00 +46°C° 0 mm 3 mps 746 mmHg 15%
    15:00 +46°C° 0 mm 3 mps 745 mmHg 15%
    16:00 +46°C° 0 mm 2 mps 746 mmHg 15%
    17:00 +45°C° 0 mm 2 mps 746 mmHg 16%
    18:00 +44°C° 0 mm 1 mps 746 mmHg 17%
    19:00 +41°C° 0 mm 2 mps 747 mmHg 19%
    20:00 +39°C° 0 mm 2 mps 747 mmHg 21%
    21:00 +37°C° 0 mm 3 mps 748 mmHg 24%
    22:00 +36°C° 0 mm 3 mps 749 mmHg 29%
    23:00 +34°C° 0 mm 2 mps 749 mmHg 33%

    30 July, Sunday

    Time Temperature Precipitation Wind Pressure Humidity
    00:00 +32°C° 0 mm 2 mps 749 mmHg 38%
    01:00 +33°C° 0 mm 3 mps 750 mmHg 40%
    02:00 +31°C° 0 mm 3 mps 750 mmHg 42%
    03:00 +32°C° 0 mm 4 mps 750 mmHg 44%
    04:00 +32°C° 0 mm 4 mps 750 mmHg 44%
    05:00 +32°C° 0 mm 4 mps 751 mmHg 44%
    06:00 +32°C° 0 mm 4 mps 751 mmHg 44%
    07:00 +34°C° 0 mm 4 mps 751 mmHg 40%
    08:00 +36°C° 0 mm 4 mps 751 mmHg 35%
    09:00 +37°C° 0 mm 4 mps 751 mmHg 31%
    10:00 +38°C° 0 mm 4 mps 751 mmHg 29%
    11:00 +39°C° 0 mm 3 mps 751 mmHg 27%
    12:00 +40°C° 0 mm 2 mps 750 mmHg 25%
    13:00 +41°C° 0 mm 2 mps 750 mmHg 25%
    14:00 +41°C° 0 mm 2 mps 750 mmHg 24%
    15:00 +42°C° 0 mm 2 mps 750 mmHg 23%
    16:00 +42°C° 0 mm 3 mps 750 mmHg 24%
    17:00 +42°C° 0 mm 3 mps 750 mmHg 25%
    18:00 +41°C° 0 mm 4 mps 750 mmHg 27%
    19:00 +39°C° 0 mm 5 mps 751 mmHg 33%
    20:00 +36°C° 0 mm 5 mps 752 mmHg 39%
    21:00 +33°C° 0 mm 6 mps 752 mmHg 44%
    22:00 +32°C° 0.1 mm 5 mps 753 mmHg 47%
    23:00 +32°C° 0.1 mm 4 mps 753 mmHg 49%
    Show more